FW7026 Weather Reports


Display with metric or nautical units.
time (UTC)temp
F
wind
direction
speed
MPH
gust
MPH
rain 1hr
in
rain 24hr
in
rain mn
in
humidity
%
barometer
mb
20260904044024 60 199 0.0 0.0 0.00 0.00 0.00 93 1009.1
20260904043520 60 199 0.0 0.0 0.00 0.00 0.00 93 1009.1
20260904041825 60 196 0.0 0.0 0.00 0.00 0.00 93 1009.9
20260904041322 60 196 0.0 0.0 0.00 0.00 0.00 93 1009.9
20260904040817 60 196 0.0 0.0 0.00 0.00 0.00 93 1009.9
20260904035124 60 191 0.0 0.0 0.00 0.63 0.63 93 1009.5
20260904034624 60 191 0.0 0.0 0.00 0.63 0.63 93 1009.5
20260904034119 60 191 0.0 0.0 0.00 0.63 0.63 93 1009.5
20260904032422 60 190 0.0 0.0 0.00 0.63 0.63 93 1009.9
20260904031921 60 190 0.0 0.0 0.00 0.63 0.63 93 1009.9
20260904031417 60 190 0.0 0.0 0.00 0.63 0.63 93 1009.9
20260904025730 60 200 0.0 0.0 0.00 0.63 0.63 93 1009.9
20260904025224 60 200 0.0 0.0 0.00 0.63 0.63 93 1009.9
20260904024720 60 200 0.0 0.0 0.00 0.63 0.63 93 1009.9
20260904023021 60 200 0.0 0.0 0.00 0.63 0.63 93 1010.2
20260904022520 60 200 0.0 0.0 0.00 0.63 0.63 93 1010.2
20260904022018 60 200 0.0 0.0 0.00 0.63 0.63 93 1010.2
20260904020323 60 203 0.0 0.0 0.00 0.63 0.63 93 1010.6
20260904015822 60 203 0.0 0.0 0.00 0.63 0.63 93 1010.6
20260904015317 60 203 0.0 0.0 0.00 0.63 0.63 93 1010.6
20260904013629 60 205 0.0 0.0 0.00 0.63 0.63 93 1010.6
20260904013124 60 205 0.0 0.0 0.00 0.63 0.63 93 1010.6
20260904012619 60 205 0.0 0.0 0.00 0.63 0.63 93 1010.6
20260904010923 60 175 0.0 0.0 0.00 0.63 0.63 93 1010.6
20260904010420 60 175 0.0 0.0 0.00 0.63 0.63 93 1010.6
20260904005919 60 175 0.0 0.0 0.00 0.63 0.63 93 1010.6
20260904004225 60 228 0.0 0.0 0.07 0.63 0.63 93 1010.6
20260904003720 60 228 0.0 0.0 0.07 0.63 0.63 93 1010.6
20260904003216 60 228 0.0 0.0 0.07 0.63 0.63 93 1010.6
20260904001522 60 182 0.0 0.0 0.07 0.59 0.59 93 1010.9
20260904001021 60 182 0.0 0.0 0.07 0.59 0.59 93 1010.9
20260904000521 60 182 0.0 0.0 0.07 0.59 0.59 93 1010.9
20260903234826 60 22 0.0 0.0 0.07 0.57 0.57 93 1010.6
20260903234323 60 22 0.0 0.0 0.07 0.57 0.57 93 1010.6
20260903233819 60 22 0.0 0.0 0.07 0.57 0.57 93 1010.6
20260903232126 60 129 0.0 0.0 0.07 0.53 0.53 93 1010.6
20260903231620 60 129 0.0 0.0 0.07 0.53 0.53 93 1010.6
20260903231120 60 129 0.0 0.0 0.07 0.53 0.53 93 1010.6
20260903225427 60 149 0.0 0.0 0.07 0.48 0.48 93 1010.9
20260903224924 60 149 0.0 0.0 0.07 0.48 0.48 93 1010.9
20260903224419 60 149 0.0 0.0 0.07 0.48 0.48 93 1010.9
20260903222721 61 142 0.0 0.0 0.14 0.45 0.45 93 1011.2
20260903222221 61 142 0.0 0.0 0.14 0.45 0.45 93 1011.2
20260903221721 61 142 0.0 0.0 0.14 0.45 0.45 93 1011.2
20260903220028 61 138 0.0 0.0 0.07 0.41 0.41 93 1011.2
20260903215522 61 138 0.0 0.0 0.07 0.41 0.41 93 1011.2
20260903215021 61 138 0.0 0.0 0.07 0.41 0.41 93 1011.2
20260903213327 61 134 0.0 0.0 0.00 0.39 0.39 93 1011.2
20260903212823 61 134 0.0 0.0 0.00 0.39 0.39 93 1011.2
20260903212319 61 134 0.0 0.0 0.00 0.39 0.39 93 1011.2
20260903210624 61 215 0.0 0.0 0.07 0.37 0.37 93 1011.6
20260903210120 61 215 0.0 0.0 0.07 0.37 0.37 93 1011.6
20260903205618 61 215 0.0 0.0 0.07 0.37 0.37 93 1011.6
20260903203924 61 223 0.0 0.0 0.00 0.34 0.34 93 1011.6
20260903203420 61 223 0.0 0.0 0.00 0.34 0.34 93 1011.6
20260903202919 61 223 0.0 0.0 0.00 0.34 0.34 93 1011.6
20260903201226 61 245 0.0 8.0 0.07 0.33 0.33 92 1011.6
20260903200724 61 245 0.0 8.0 0.07 0.33 0.33 92 1011.6
20260903200220 61 245 0.0 8.0 0.07 0.33 0.33 92 1011.6
20260903194527 61 165 0.0 2.0 0.07 0.31 0.31 92 1011.6
20260903194022 61 165 0.0 2.0 0.07 0.31 0.31 92 1011.6
20260903193518 61 165 0.0 2.0 0.07 0.31 0.31 92 1011.6
20260903191824 60 254 1.0 10.0 0.07 0.30 0.30 92 1011.9
20260903191320 60 254 1.0 10.0 0.07 0.30 0.30 92 1011.9
20260903190819 60 254 1.0 10.0 0.07 0.30 0.30 92 1011.9
20260903185129 60 246 0.0 8.0 0.00 0.28 0.28 92 1012.2
20260903184626 60 246 0.0 8.0 0.00 0.28 0.28 92 1012.2
20260903184121 60 246 0.0 8.0 0.00 0.28 0.28 92 1012.2
20260903182429 60 251 0.0 10.0 0.00 0.27 0.27 92 1012.2
20260903181924 60 251 0.0 10.0 0.00 0.27 0.27 92 1012.2
20260903181418 60 251 0.0 10.0 0.00 0.27 0.27 92 1012.2
20260903175721 60 134 0.0 10.0 0.07 0.27 0.27 92 1012.6
20260903175220 60 134 0.0 10.0 0.07 0.27 0.27 92 1012.6
20260903174719 60 134 0.0 10.0 0.07 0.27 0.27 92 1012.6
20260903173027 60 23 0.0 0.0 0.00 0.25 0.25 92 1012.9
20260903172521 60 23 0.0 0.0 0.00 0.25 0.25 92 1012.9
20260903172016 60 23 0.0 0.0 0.00 0.25 0.25 92 1012.9
20260903170322 60 188 0.0 2.0 0.07 0.22 0.22 92 1012.9
20260903165820 60 188 0.0 2.0 0.07 0.22 0.22 92 1012.9
20260903165319 60 188 0.0 2.0 0.07 0.22 0.22 92 1012.9
20260903163624 60 171 0.0 0.0 0.07 0.19 0.19 92 1013.3
20260903163121 60 171 0.0 0.0 0.07 0.19 0.19 92 1013.3
20260903162616 60 171 0.0 0.0 0.07 0.19 0.19 92 1013.3
20260903160924 59 226 0.0 2.0 0.14 0.15 0.15 92 1013.3
20260903160422 59 226 0.0 2.0 0.14 0.15 0.15 92 1013.3
20260903155921 59 226 0.0 2.0 0.14 0.15 0.15 92 1013.3
20260903154228 59 138 0.0 2.0 0.00 0.12 0.12 92 1013.3
20260903153723 59 138 0.0 2.0 0.00 0.12 0.12 92 1013.3
20260903153219 59 138 0.0 2.0 0.00 0.12 0.12 92 1013.3
20260903151525 59 220 1.0 5.0 0.00 0.11 0.11 92 1013.6
20260903151021 59 220 1.0 5.0 0.00 0.11 0.11 92 1013.6
20260903150520 59 220 1.0 5.0 0.00 0.11 0.11 92 1013.6
20260903144830 59 193 0.0 2.0 0.07 0.11 0.11 92 1014.0
20260903144325 59 193 0.0 2.0 0.07 0.11 0.11 92 1014.0
20260903143821 59 193 0.0 2.0 0.07 0.11 0.11 92 1014.0
20260903142129 58 156 5.0 10.0 0.00 0.09 0.09 92 1014.4
20260903141625 58 156 5.0 10.0 0.00 0.09 0.09 92 1014.4
20260903141119 58 156 5.0 10.0 0.00 0.09 0.09 92 1014.4
20260903135421 58 154 0.0 2.0 0.14 0.08 0.08 92 1014.4
20260903134921 58 154 0.0 2.0 0.14 0.08 0.08 92 1014.4
20260903134420 58 154 0.0 2.0 0.14 0.08 0.08 92 1014.4
20260903132723 57 43 0.0 5.0 0.07 0.04 0.04 91 1014.7
20260903132223 57 43 0.0 5.0 0.07 0.04 0.04 91 1014.7
20260903131718 57 43 0.0 5.0 0.07 0.04 0.04 91 1014.7
20260903130027 57 278 0.0 5.0 0.00 0.02 0.02 91 1014.7
20260903125525 57 278 0.0 5.0 0.00 0.02 0.02 91 1014.7
20260903125020 57 278 0.0 5.0 0.00 0.02 0.02 91 1014.7
20260903123323 56 229 5.0 8.0 0.00 0.01 0.01 90 1015.1
20260903122821 56 229 5.0 8.0 0.00 0.01 0.01 90 1015.1
20260903122316 56 229 5.0 8.0 0.00 0.01 0.01 90 1015.1
20260903120624 56 213 0.0 13.0 0.00 0.01 0.01 89 1015.1
20260903120119 56 213 0.0 13.0 0.00 0.01 0.01 89 1015.1
20260903115616 56 213 0.0 13.0 0.00 0.01 0.01 89 1015.1
20260903113929 56 156 0.0 5.0 0.00 0.01 0.01 85 1015.4
20260903113426 56 156 0.0 5.0 0.00 0.01 0.01 85 1015.4
20260903112920 56 156 0.0 5.0 0.00 0.01 0.01 85 1015.4
20260903111226 55 34 0.0 2.0 0.00 0.00 0.00 79 1015.4
20260903110722 55 34 0.0 2.0 0.00 0.00 0.00 79 1015.4
20260903110217 55 34 0.0 2.0 0.00 0.00 0.00 79 1015.4
20260903104526 55 137 0.0 2.0 0.00 0.00 0.00 76 1015.4
20260903104022 55 137 0.0 2.0 0.00 0.00 0.00 76 1015.4
20260903103517 55 137 0.0 2.0 0.00 0.00 0.00 76 1015.4
20260903101827 55 48 0.0 0.0 0.00 0.00 0.00 75 1015.4
20260903101322 55 48 0.0 0.0 0.00 0.00 0.00 75 1015.4
20260903100817 55 48 0.0 0.0 0.00 0.00 0.00 75 1015.4
20260903095128 55 17 0.0 0.0 0.00 0.00 0.00 74 1015.1
20260903094623 55 17 0.0 0.0 0.00 0.00 0.00 74 1015.1
20260903094118 55 17 0.0 0.0 0.00 0.00 0.00 74 1015.1
20260903092419 55 139 0.0 2.0 0.00 0.00 0.00 73 1015.4
20260903091918 55 139 0.0 2.0 0.00 0.00 0.00 73 1015.4
20260903091416 55 139 0.0 2.0 0.00 0.00 0.00 73 1015.4
20260903085726 55 126 0.0 0.0 0.00 0.00 0.00 72 1015.7
20260903085221 55 126 0.0 0.0 0.00 0.00 0.00 72 1015.7
20260903084718 55 126 0.0 0.0 0.00 0.00 0.00 72 1015.7
20260903083022 55 162 0.0 0.0 0.00 0.00 0.00 72 1016.1
20260903082522 55 162 0.0 0.0 0.00 0.00 0.00 72 1016.1
20260903082017 55 162 0.0 0.0 0.00 0.00 0.00 72 1016.1
20260903080327 55 140 0.0 0.0 0.00 0.00 0.00 71 1015.7
20260903075825 55 140 0.0 0.0 0.00 0.00 0.00 71 1015.7
20260903075321 55 140 0.0 0.0 0.00 0.00 0.00 71 1015.7
20260903073626 55 179 0.0 0.0 0.00 0.00 0.00 71 1016.4
20260903073122 55 179 0.0 0.0 0.00 0.00 0.00 71 1016.4
20260903072617 55 179 0.0 0.0 0.00 0.00 0.00 71 1016.4
20260903070926 55 184 0.0 0.0 0.00 0.00 0.00 72 1016.8
20260903070426 55 184 0.0 0.0 0.00 0.00 0.00 72 1016.8
20260903065920 55 184 0.0 0.0 0.00 0.00 0.00 72 1016.8
20260903064228 55 218 0.0 0.0 0.00 0.00 0.00 73 1016.8
20260903063724 55 218 0.0 0.0 0.00 0.00 0.00 73 1016.8
20260903063219 55 218 0.0 0.0 0.00 0.00 0.00 73 1016.8
20260903061526 54 339 0.0 0.0 0.00 0.00 0.00 75 1017.4
20260903061020 54 339 0.0 0.0 0.00 0.00 0.00 75 1017.4
20260903060519 54 339 0.0 0.0 0.00 0.00 0.00 75 1017.4
20260903054820 54 226 0.0 0.0 0.00 0.00 0.00 76 1017.4
20260903054320 54 226 0.0 0.0 0.00 0.00 0.00 76 1017.4
20260903053817 54 226 0.0 0.0 0.00 0.00 0.00 76 1017.4
20260903051933 54 207 0.0 0.0 0.00 0.00 0.00 76 1017.8
20260903051428 54 207 0.0 0.0 0.00 0.00 0.00 76 1017.8
20260903050924 54 186 0.0 0.0 0.00 0.00 0.00 76 1017.8
20260903050421 54 186 0.0 0.0 0.00 0.00 0.00 76 1017.8
20260903045430 54 186 0.0 0.0 0.00 0.00 0.00 76 1017.8
20260903044926 54 186 0.0 0.0 0.00 0.00 0.00 76 1017.8
20260903044421 54 200 0.0 0.0 0.00 0.00 0.00 76 1017.8